Bismarck, ND

7:21 PM CDT on July 25, 2017 (GMT -0500)
Bismarck Municipal

Weather History for KBIS - August, 2013

Change the Weather History Date:

Thursday, August 1, 2013

  Actual Average Record
Temperature  
Mean Temperature 65 °F 72 °F  
Max Temperature 82 °F 86 °F 105 °F (1900)
Min Temperature 48 °F 58 °F 40 °F (1968)
Degree Days  
Heating Degree Days 0 0  
Month to date heating degree days 0 0  
Since 1 June heating degree days 108 110  
Since 1 July heating degree days 22 17  
Cooling Degree Days 0 7  
Month to date cooling degree days 0 7  
Year to date cooling degree days 281 311  
Since 1 June cooling degree days 269 294  
Growing Degree Days 15 (Base 50)    
Moisture  
Dew Point 51 °F    
Average Humidity 63    
Maximum Humidity 93    
Minimum Humidity 33    
Precipitation  
Precipitation 0.00 in 0.08 in 2.92 in (1915)
Month to date precipitation 0.00 0.08  
Year to date precipitation 14.94 11.61  
Snow  
Snow 0.00 in 0.00 in 0.00 in (2002)
Month to date snowfall 0.0 0.0  
Since 1 June snowfall 0.0 0.0  
Since 1 July snowfall 0.0 0.0  
Snow Depth 0.00 in    
Sea Level Pressure  
Sea Level Pressure 30.03 in    
Wind  
Wind Speed 5 mph (NW)    
Max Wind Speed 16 mph    
Max Gust Speed 19 mph    
Visibility 10 miles    
Events      
T = Trace of Precipitation, MM = Missing Value Source: NWS Daily Summary

Daily Weather History Graph

Daily Weather History Graph

Search for Another Location

Airport or City:

Trip Planner

Search our weather history database for the weather conditions in past years. The results will help you decide how hot, cold, wet, or windy it might be!

Date:

Astronomy

Aug. 01, 2013 Rise Set
Actual Time 6:23 AM CDT 9:14 PM CDT
Civil Twilight 5:48 AM CDT 9:49 PM CDT
Nautical Twilight 5:03 AM CDT 10:34 PM CDT
Astronomical Twilight 4:09 AM CDT 11:27 PM CDT
Moon 1:59 AM CDT (8/1) 5:27 PM CDT (8/1)
Length of Visible Light 16h 01m
Length of Day
14h 50m
Waning Crescent, 23% of the Moon is Illuminated
Aug 1
Waning Crescent
Aug 6
New
Aug 14
First Quarter
Aug 20
Full
Aug 28
Last Quarter

Hourly Weather History & Observations

Time (CDT) Temp. Dew Point Humidity Pressure Visibility Wind Dir Wind Speed Gust Speed Precip Events Conditions
12:52 AM 61.0 °F 53.1 °F 75% 30.10 in 10.0 mi NW 4.6 mph - N/A   Clear
1:52 AM 54.0 °F 51.1 °F 90% 30.10 in 10.0 mi Calm Calm - N/A   Clear
2:52 AM 53.1 °F 50.0 °F 89% 30.09 in 10.0 mi West 3.5 mph - N/A   Clear
3:52 AM 55.0 °F 52.0 °F 89% 30.09 in 10.0 mi WSW 4.6 mph - N/A   Clear
4:52 AM 54.0 °F 50.0 °F 86% 30.07 in 10.0 mi NW 3.5 mph - N/A   Clear
5:52 AM 53.1 °F 50.0 °F 89% 30.08 in 10.0 mi Calm Calm - N/A   Clear
6:52 AM 53.1 °F 50.0 °F 89% 30.08 in 10.0 mi Calm Calm - N/A   Clear
7:52 AM 57.0 °F 51.1 °F 81% 30.08 in 10.0 mi West 3.5 mph - N/A   Clear
8:52 AM 60.1 °F 53.1 °F 78% 30.08 in 10.0 mi Calm Calm - N/A   Clear
9:52 AM 66.0 °F 54.0 °F 65% 30.07 in 10.0 mi Calm Calm - N/A   Clear
10:52 AM 72.0 °F 52.0 °F 49% 30.06 in 10.0 mi WNW 4.6 mph - N/A   Clear
11:52 AM 75.0 °F 48.9 °F 40% 30.06 in 10.0 mi Calm Calm - N/A   Clear
12:52 PM 78.1 °F 48.0 °F 35% 30.03 in 10.0 mi WNW 6.9 mph - N/A   Clear
1:52 PM 80.1 °F 48.9 °F 34% 30.02 in 10.0 mi NNW 9.2 mph - N/A   Clear
2:52 PM 79.0 °F 50.0 °F 36% 30.00 in 10.0 mi WSW 6.9 mph - N/A   Clear
3:52 PM 80.1 °F 50.0 °F 35% 29.98 in 10.0 mi WNW 6.9 mph - N/A   Clear
4:52 PM 80.1 °F 48.9 °F 34% 29.98 in 10.0 mi Variable 6.9 mph - N/A   Clear
5:52 PM 79.0 °F 48.9 °F 35% 29.97 in 10.0 mi North 10.4 mph - N/A   Scattered Clouds
6:52 PM 80.1 °F 48.9 °F 34% 29.96 in 10.0 mi NNW 11.5 mph - N/A   Clear
7:52 PM 75.9 °F 50.0 °F 40% 29.96 in 10.0 mi NNW 10.4 mph - N/A   Clear
8:52 PM 73.9 °F 51.1 °F 45% 29.96 in 10.0 mi NNW 5.8 mph - N/A   Clear
9:52 PM 69.1 °F 53.1 °F 57% 29.96 in 9.0 mi NNE 6.9 mph - N/A   Clear
10:52 PM 66.0 °F 54.0 °F 65% 29.97 in 10.0 mi NE 8.1 mph - N/A   Clear
11:52 PM 62.1 °F 54.0 °F 75% 29.99 in 10.0 mi NE 5.8 mph - N/A   Clear